Other Public Products
Issued by NWS Grand Forks, ND

Home | Current Version | Previous Version | Text Only | Print | Product List | Glossary Off
Versions: 1 2 3 4 5 6 7 8 9 10 11 12 13 14 15 16 17 18 19 20 21 22 23 24 25 26 27 28 29 30 31 32 33 34 35 36 37 38 39 40 41 42 43 44 45 46 47 48 49 50

000
FPUS83 KFGF 020610
OPUFGF
PRAIRIE TO PINES WEATHER ROUNDUP
NATIONAL WEATHER SERVICE EASTERN NORTH DAKOTA/GRAND FORKS ND
1200 AM CST FRI DEC 02 2016

 **SATELLITE DATA USED TO AUGMENT SKY COVER AT AUTOMATED STATIONS**
 *****  WEATHER ACROSS EASTERN NORTH DAKOTA  *****

CITY           SKY/WX    TMP DP  RH WIND       PRES   REMARKS
GRAND FORKS    CLOUDY    29  22  75 N12       30.12R WCI  19
6HR MIN TEMP:  29; 6HR MAX TEMP:  30;

GRAND FORKS AF CLOUDY    28  22  81 N12       30.12R WCI  18
GRAND CITY NWS   N/A     28 N/A N/A N3          N/A
BUXTON         NOT AVBL
DEVILS LAKE    CLOUDY    27  22  81 N9        30.12R WCI  18
6HR MIN TEMP:  26; 6HR MAX TEMP:  28; 6HR PCP: TRACE;

FARGO          CLOUDY    30  23  75 N9        30.10R WCI  22
6HR MIN TEMP:  29; 6HR MAX TEMP:  30;

WAHPETON ARPT  CLOUDY    30  23  74 NW10      30.11R WCI  21
$$

 *****  WEATHER ACROSS CENTRAL AND WESTERN NORTH DAKOTA  *****

CITY           SKY/WX    TMP DP  RH WIND       PRES   REMARKS
JAMESTOWN      CLOUDY    27  21  78 N7        30.10R WCI  19
6HR MIN TEMP:  26; 6HR MAX TEMP:  28;

BISMARCK       CLOUDY    27  23  85 N3        30.12R
6HR MIN TEMP:  27; 6HR MAX TEMP:  29;

MINOT          CLOUDY    28  22  78 CALM      30.11R
6HR MIN TEMP:  27; 6HR MAX TEMP:  29;

MINOT AFB      CLOUDY    27  21  79 CALM      30.11R
6HR MIN TEMP:  26; 6HR MAX TEMP:  28;

GARRISON         N/A     26  21  81 NE3       30.10R
6HR MIN TEMP:  26; 6HR MAX TEMP:  27;

WILLISTON      CLOUDY    29  23  78 SE6       30.09R WCI  23
6HR MIN TEMP:  29; 6HR MAX TEMP:  29;

DICKINSON      CLOUDY    24  21  88 S3        30.05R
6HR MIN TEMP:  24; 6HR MAX TEMP:  25;

HETTINGER      CLOUDY    25  21  85 E3        30.07R
6HR MIN TEMP:  24; 6HR MAX TEMP:  26; 6HR PCP: TRACE;

$$

 *****  OTHER OBSERVATIONS NORTHEAST NORTH DAKOTA  *****

CITY           SKY/WX    TMP DP  RH WIND       PRES   REMARKS
WALHALLA         N/A     28  28 100 N10       30.13R WCI  19
LANGDON        CLOUDY    27  25  93 N9        30.10R WCI  17
CAVALIER         N/A     28  25  86 N13       30.12R WCI  18
GRAFTON        CLOUDY    28  25  86 N10G18    30.14R WCI  19
CANDO          CLOUDY    27  25  93 NW5       30.14R WCI  21
FORT TOTTEN      N/A     26  23  89 N6        29.95S WCI  19
ROLLA          CLOUDY    25  25 100 W6        30.11R WCI  18
RUGBY            N/A     27  23  86 CALM      30.12R
 ***** THE ABOVE OBSERVATIONS ARE NON NWS ARE NOT QUALITY
        CONTROLLED AND MAY MIS-REPORT RAIN FOR SNOW...
$$

 *****  OTHER OBSERVATIONS SOUTHEAST NORTH DAKOTA *****

CITY           SKY/WX    TMP DP  RH WIND       PRES   REMARKS
COOPERSTOWN    CLOUDY    27  23  86 N9        30.11R WCI  17
VALLEY CITY    CLOUDY    25  25 100 NW7       30.12R WCI  17
OAKES          NOT AVBL
GWINNER        CLOUDY    30  25  80 N9        30.11R WCI  22
SHEYENNE NWR     N/A     28  22  77 N6        29.95S WCI  22
BUFFALO        NOT AVBL
WYNDMERE       NOT AVBL
 ***** THE ABOVE OBSERVATIONS ARE NON NWS ARE NOT QUALITY
       CONTROLLED AND MAY MIS-REPORT RAIN FOR SNOW...
$$

  *****  WEATHER ACROSS NORTHERN MINNESOTA  *****

CITY           SKY/WX    TMP DP  RH WIND       PRES   REMARKS
FLAG ISLAND    CLOUDY    23  19  86 NW10      30.06R WCI  12
WARROAD        CLOUDY    21  18  86 NW5       30.08R WCI  15
ROSEAU         CLOUDY    25  19  80 N7        30.09R WCI  17
HALLOCK        CLOUDY    28  25  86 N9        30.12R WCI  20
THF RVR FALLS    N/A     26  21  81 N10       30.09R WCI  16
6HR MIN TEMP:  26; 6HR MAX TEMP:  27;

HALSTAD          N/A     28  23  81 N9          N/A  WCI  19
FOSSTON        CLOUDY    25  21  86 N6        30.07R WCI  18
BAUDETTE       CLOUDY    25  20  81 NW7       30.05R WCI  17
6HR MIN TEMP:  25; 6HR MAX TEMP:  27;

WASKISH        CLOUDY    25  21  86 W8        30.06R WCI  16
CROOKSTON      CLOUDY    28  21  74 N12       30.11R WCI  18
$$
  *****  WEATHER ACROSS CENTRAL AND WEST MINNESOTA  *****

CITY           SKY/WX    TMP DP  RH WIND       PRES   REMARKS
BEMIDJI        CLOUDY    24  20  87 NW6       30.05R WCI  17
PARK RAPIDS    CLOUDY    26  19  74 NW9       30.04R WCI  17
6HR MIN TEMP:  26; 6HR MAX TEMP:  29;

WADENA         CLOUDY    27  21  80 N8        30.04R WCI  18
DETROIT LAKES  CLOUDY    28  23  80 N7        30.06R WCI  21
MOORHEAD       CLOUDY    28  23  80 N7        30.11R WCI  21
FERGUS FALLS   CLOUDY    27  21  80 NW9       30.12R WCI  17
ELBOW LAKE     CLOUDY    28  24  87 NW10      30.08R WCI  18
MORRIS MN      CLOUDY    30  25  80 N8        30.07R WCI  23
STAPLES        CLOUDY    27  21  80 N3        30.04R
WHEATON        NOT AVBL
$$
  *****  WEATHER ELSEWHERE ACROSS MINNESOTA  *****

CITY           SKY/WX    TMP DP  RH WIND       PRES   REMARKS
DULUTH         CLOUDY    28  22  78 N10       29.97R WCI  19
6HR MIN TEMP:  27; 6HR MAX TEMP:  28;

INTRNTL FALLS  CLOUDY    25  20  81 NW10      30.03R WCI  15
6HR MIN TEMP:  25; 6HR MAX TEMP:  27;

ELY            CLOUDY    25  21  86 N3        29.98R
CLOQUET        CLOUDY    28  21  74 NW7       29.99R WCI  21
BRAINERD       CLOUDY    28  22  78 NW10      30.03R WCI  19
6HR MIN TEMP:  28; 6HR MAX TEMP:  30;

HIBBING        CLOUDY    26  21  81 NW10      30.00R WCI  16
6HR MIN TEMP:  25; 6HR MAX TEMP:  26;

ALEXANDRIA     CLOUDY    29  23  78 NW9       30.05R WCI  20
6HR MIN TEMP:  29; 6HR MAX TEMP:  31;

SAINT CLOUD    CLOUDY    30  24  78 NW7       30.04R WCI  23
6HR MIN TEMP:  30; 6HR MAX TEMP:  33;

MINNEAPOLIS    CLOUDY    33  23  66 NW8       30.04R
6HR MIN TEMP:  33; 6HR MAX TEMP:  37;

$$

  *****  WEATHER ACROSS SOUTH DAKOTA  *****

CITY           SKY/WX    TMP DP  RH WIND       PRES   REMARKS
SIOUX FALLS    CLOUDY    33  32  96 NW6       30.07R
6HR MIN TEMP:  33; 6HR MAX TEMP:  33;

BROOKINGS      CLOUDY    29  26  89 N7        30.06R WCI  22
WATERTOWN      CLOUDY    26  23  88 N9        30.06R WCI  17
6HR MIN TEMP:  25; 6HR MAX TEMP:  30;

HURON          CLOUDY    30  28  92 N6        30.10R WCI  24
6HR MIN TEMP:  30; 6HR MAX TEMP:  32;

SISSETON         N/A     29  24  82 N9        30.09R WCI  20
ABERDEEN       CLOUDY    29  24  82 N9        30.10R WCI  20
6HR MIN TEMP:  29; 6HR MAX TEMP:  31;

MITCHELL       CLOUDY    33  30  88 NW6       30.10R
PIERRE         CLOUDY    30  25  81 W3        30.09R
6HR MIN TEMP:  29; 6HR MAX TEMP:  30; 6HR PCP: TRACE;

MOBRIDGE       CLOUDY    30  26  85 CALM      30.08R
RAPID CITY     CLOUDY    23  18  81 CALM      30.05R
6HR MIN TEMP:  20; 6HR MAX TEMP:  25;

$$

  *****  SOME WEATHER IN NEARBY STATES *****

CITY           SKY/WX    TMP DP  RH WIND       PRES   REMARKS
GLASGOW MT     CLOUDY    28  24  85 CALM      30.06R
6HR MIN TEMP:  26; 6HR MAX TEMP:  28;

GREAT FALLS MT LGT SNOW  29  28  96 SW8       30.10R FOG     WCI  21
6HR MIN TEMP:  29; 6HR MAX TEMP:  30; 6HR PCP:  0.10;

CHEYENNE WY    CLOUDY    22  14  71 W6        30.02R WCI  14
6HR MIN TEMP:  21; 6HR MAX TEMP:  30;

SCOTTSBLUFF NE PTCLDY    20  14  77 NW7       30.06R WCI  11
6HR MIN TEMP:  20; 6HR MAX TEMP:  33;

OMAHA NE       CLOUDY    33  26  75 NW3       30.11R
6HR MIN TEMP:  33; 6HR MAX TEMP:  37;

DES MOINES IA  FLURRIES  37  30  75 NW6       30.08R
6HR MIN TEMP:  36; 6HR MAX TEMP:  37; 6HR PCP: TRACE;

DAVENPORT IA   CLOUDY    36  33  89 W9        30.05R
6HR MIN TEMP:  36; 6HR MAX TEMP:  37;

CHICAGO IL     CLOUDY    37  32  82 W9        29.99R
6HR MIN TEMP:  37; 6HR MAX TEMP:  38;

EAU CLAIRE WI  CLOUDY    32  23  69 NW8       30.00R WCI  25
6HR MIN TEMP:  32; 6HR MAX TEMP:  35;

LA CROSSE WI   CLOUDY    38  32  79 NW9       30.00R
6HR MIN TEMP:  37; 6HR MAX TEMP:  40; 6HR PCP: TRACE;

$$

  *****  SOME NATIONAL WEATHER *****

CITY           SKY/WX    TMP DP  RH WIND       PRES   REMARKS
LA GUARDIA NY  CLEAR     45  27  49 W16G28    29.85R
6HR MIN TEMP:  45; 6HR MAX TEMP:  50;                             C1F1C2F2C3F3C4F4C5F5C6F6C7F7C8F8C9F9CaFaCbFbCcFcCdFdCe!



USA.gov is the U.S. government's official web portal to all federal, state and local government web resources and services.